FIN67 EFHK-RJBB

Flight info

Callsign FIN67
Flight time N/A
Altitude 36000
Route KOIVU Y123 LARTI DCT LUTAL DCT BERIL/N0487F350 DCT VABER/N0487F360 DCT ETUBO DCT ROBTU/N0479F350 DCT KENIN DCT REVDA/N0481F370 DCT UDROS UM859 KARDE UN644 ROLIN DCT TAGAR DCT BT DCT BARAD M747 SUBUT T916 BALUN/K0889F370 T916 ERTUZ/K0889F390 T916 PIGAL M610 RULAD/K0880S1190 A343 POSOT B215 FKG W188 LIKMI W270 BIVOR/K0895S1250 W270 DKO W69 HUR B339 LADIX W34 VAPGU W100 ORAVA W201 UNSEK A326 DONVO G597 AGAVO/N0472F410 Y644 EGOBA Y697 LANAT Y597 MIHOU Y361 SAEKI/N0472F400 Y36 ATMUG
Aircraft A359/H-SDE2E3GHIJ3J4J5LM1ORWXY/LB1D1

Departure

Time N/A
Airport Helsinki Vantaa Airport (EFHK)

Arrival

Time 2026-04-28 10:34
Airport Kansai International Airport (RJBB)
Time Latitude Longitude Altitude Speed Heading
2026-04-28 07:25 40.87278 105.36758 41103 ft 521 kts 115°
2026-04-28 07:26 40.84262 105.45514 41210 ft 523 kts 115°
2026-04-28 07:26 40.81252 105.54225 41211 ft 522 kts 115°
2026-04-28 07:27 40.78233 105.62935 41208 ft 522 kts 115°
2026-04-28 07:27 40.75200 105.71662 41211 ft 523 kts 115°
2026-04-28 07:28 40.72172 105.80343 41219 ft 523 kts 115°
2026-04-28 07:28 40.69125 105.89056 41219 ft 523 kts 115°
2026-04-28 07:29 40.66073 105.97754 41224 ft 523 kts 115°
2026-04-28 07:29 40.63023 106.06423 41232 ft 524 kts 115°
2026-04-28 07:30 40.59942 106.15152 41233 ft 525 kts 115°
2026-04-28 07:30 40.56869 106.23830 41241 ft 525 kts 116°
2026-04-28 07:31 40.53789 106.32501 41239 ft 525 kts 116°
2026-04-28 07:31 40.50677 106.41238 41238 ft 526 kts 116°
2026-04-28 07:32 40.47573 106.49927 41235 ft 526 kts 116°
2026-04-28 07:32 40.44450 106.58640 41235 ft 527 kts 116°
2026-04-28 07:33 40.41341 106.67291 41235 ft 527 kts 116°
2026-04-28 07:33 40.38196 106.76014 41236 ft 527 kts 116°
2026-04-28 07:34 40.35058 106.84691 41233 ft 528 kts 116°
2026-04-28 07:34 40.32340 106.93644 41236 ft 529 kts 103°
2026-04-28 07:35 40.31767 107.03151 41235 ft 526 kts 82°
2026-04-28 07:35 40.32747 107.12611 41238 ft 527 kts 79°
2026-04-28 07:36 40.33987 107.22139 41237 ft 528 kts 78°
2026-04-28 07:36 40.35209 107.31597 41238 ft 528 kts 79°
2026-04-28 07:37 40.36392 107.41128 41244 ft 528 kts 79°
2026-04-28 07:37 40.37544 107.50623 41235 ft 529 kts 79°
2026-04-28 07:38 40.38692 107.60169 41238 ft 530 kts 79°
2026-04-28 07:38 40.39834 107.69733 41238 ft 530 kts 79°
2026-04-28 07:39 40.40969 107.79292 41243 ft 529 kts 79°
2026-04-28 07:39 40.42091 107.88801 41242 ft 530 kts 79°
2026-04-28 07:40 40.43212 107.98372 41238 ft 530 kts 79°
2026-04-28 07:40 40.44321 108.07904 41236 ft 530 kts 79°
2026-04-28 07:41 40.45419 108.17482 41235 ft 530 kts 79°
2026-04-28 07:41 40.46511 108.27071 41236 ft 530 kts 79°
2026-04-28 07:42 40.47596 108.36653 41235 ft 530 kts 80°
2026-04-28 07:42 40.48663 108.46145 41233 ft 530 kts 80°
2026-04-28 07:43 40.49735 108.55754 41235 ft 530 kts 80°
2026-04-28 07:43 40.50797 108.65346 41231 ft 529 kts 80°
2026-04-28 07:44 40.51844 108.74879 41224 ft 529 kts 80°
2026-04-28 07:44 40.52886 108.84435 41229 ft 530 kts 80°
2026-04-28 07:45 40.53928 108.94075 41226 ft 531 kts 80°
2026-04-28 07:45 40.54956 109.03658 41224 ft 531 kts 80°
2026-04-28 07:46 40.55983 109.13310 41223 ft 531 kts 80°
2026-04-28 07:46 40.56995 109.22894 41230 ft 533 kts 80°
2026-04-28 07:47 40.58007 109.32565 41221 ft 531 kts 80°
2026-04-28 07:47 40.59000 109.42139 41218 ft 530 kts 80°
2026-04-28 07:48 40.59994 109.51794 41219 ft 531 kts 81°
2026-04-28 07:48 40.60976 109.61403 41219 ft 533 kts 81°
2026-04-28 07:49 40.61955 109.71074 41218 ft 533 kts 81°
2026-04-28 07:49 40.62928 109.80770 41233 ft 533 kts 81°
2026-04-28 07:50 40.63887 109.90414 41224 ft 534 kts 81°
2026-04-28 07:50 40.64598 110.00182 41237 ft 535 kts 87°
2026-04-28 07:51 40.64658 110.09914 41238 ft 534 kts 89°
2026-04-28 07:51 40.64600 110.19710 41238 ft 534 kts 89°
2026-04-28 07:52 40.64522 110.29472 41232 ft 535 kts 89°
2026-04-28 07:52 40.64446 110.39314 41240 ft 536 kts 89°
2026-04-28 07:53 40.64371 110.49081 41241 ft 535 kts 89°
2026-04-28 07:53 40.64290 110.58933 41241 ft 537 kts 90°
2026-04-28 07:54 40.64199 110.68742 41243 ft 539 kts 89°
2026-04-28 07:54 40.64101 110.78625 41245 ft 538 kts 90°
2026-04-28 07:55 40.63996 110.88451 41250 ft 540 kts 90°
2026-04-28 07:55 40.63878 110.98371 41251 ft 541 kts 90°
2026-04-28 07:56 40.63753 111.08235 41244 ft 541 kts 90°
2026-04-28 07:56 40.63620 111.18129 41248 ft 539 kts 90°
2026-04-28 07:57 40.63484 111.28026 41252 ft 538 kts 90°
2026-04-28 07:57 40.63333 111.37840 41240 ft 538 kts 90°
2026-04-28 07:58 40.63174 111.47708 41247 ft 538 kts 90°
2026-04-28 07:58 40.63007 111.57581 41246 ft 538 kts 90°
2026-04-28 07:59 40.62834 111.67401 41248 ft 538 kts 90°
2026-04-28 07:59 40.62652 111.77258 41244 ft 538 kts 90°
2026-04-28 08:00 40.62462 111.87074 41252 ft 539 kts 90°
2026-04-28 08:00 40.62279 111.96987 41246 ft 540 kts 90°
2026-04-28 08:01 40.62071 112.06896 41252 ft 541 kts 90°
2026-04-28 08:01 40.61848 112.16753 41254 ft 541 kts 90°
2026-04-28 08:02 40.61624 112.26648 41274 ft 542 kts 90°
2026-04-28 08:02 40.61424 112.34893 41247 ft 541 kts 90°
2026-04-28 08:03 40.61133 112.46400 41258 ft 539 kts 91°
2026-04-28 08:03 40.60877 112.54618 41242 ft 541 kts 92°
2026-04-28 08:04 40.60290 112.64528 41239 ft 542 kts 94°
2026-04-28 08:04 40.59649 112.74428 41252 ft 542 kts 94°
2026-04-28 08:05 40.58851 112.84264 41247 ft 543 kts 95°
2026-04-28 08:05 40.58118 112.94163 41242 ft 543 kts 94°
2026-04-28 08:06 40.57464 113.04074 41243 ft 544 kts 94°
2026-04-28 08:06 40.56814 113.13933 41234 ft 544 kts 94°
2026-04-28 08:07 40.56139 113.23883 41232 ft 546 kts 95°
2026-04-28 08:07 40.55454 113.33785 41232 ft 546 kts 95°
2026-04-28 08:08 40.54753 113.43757 41233 ft 546 kts 95°
2026-04-28 08:08 40.54044 113.53733 41228 ft 547 kts 95°
2026-04-28 08:09 40.53331 113.63638 41235 ft 548 kts 95°
2026-04-28 08:09 40.52603 113.73618 41231 ft 545 kts 95°
2026-04-28 08:10 40.51877 113.83480 41224 ft 545 kts 95°
2026-04-28 08:10 40.51137 113.93417 41217 ft 546 kts 95°
2026-04-28 08:11 40.50417 114.03366 41210 ft 546 kts 93°
2026-04-28 08:11 40.49997 114.13285 41210 ft 547 kts 91°
2026-04-28 08:12 40.49649 114.23241 41207 ft 548 kts 92°
2026-04-28 08:12 40.49248 114.33265 41206 ft 548 kts 92°
2026-04-28 08:13 40.48807 114.43296 41204 ft 549 kts 92°
2026-04-28 08:13 40.48351 114.53269 41198 ft 550 kts 92°
2026-04-28 08:14 40.47884 114.63304 41198 ft 550 kts 92°
2026-04-28 08:14 40.47410 114.73343 41193 ft 550 kts 93°
2026-04-28 08:15 40.46927 114.83378 41192 ft 549 kts 93°
2026-04-28 08:15 40.46441 114.93328 41193 ft 550 kts 93°
2026-04-28 08:16 40.45940 115.03391 41189 ft 550 kts 93°
2026-04-28 08:16 40.45434 115.13376 41190 ft 550 kts 93°
2026-04-28 08:17 40.44919 115.23365 41188 ft 551 kts 93°
2026-04-28 08:17 40.44394 115.33400 41179 ft 550 kts 93°
2026-04-28 08:18 40.43857 115.43478 41185 ft 552 kts 93°
2026-04-28 08:18 40.43317 115.53470 41181 ft 552 kts 93°
2026-04-28 08:19 40.42610 115.63524 41184 ft 552 kts 96°
2026-04-28 08:19 40.41739 115.73573 41180 ft 553 kts 96°
2026-04-28 08:20 40.40882 115.83538 41177 ft 553 kts 96°
2026-04-28 08:20 40.40038 115.93613 41175 ft 553 kts 96°
2026-04-28 08:21 40.39207 116.03587 41179 ft 553 kts 96°
2026-04-28 08:21 40.38360 116.13639 41171 ft 551 kts 96°
2026-04-28 08:22 40.37510 116.23619 41170 ft 551 kts 96°
2026-04-28 08:22 40.36654 116.33568 41173 ft 552 kts 96°
2026-04-28 08:23 40.35781 116.43591 41169 ft 553 kts 96°
2026-04-28 08:23 40.34899 116.53624 41165 ft 553 kts 96°
2026-04-28 08:24 40.33617 116.63490 41166 ft 553 kts 109°
2026-04-28 08:24 40.32198 116.68148 41166 ft 549 kts 120°
2026-04-28 08:24 40.30174 116.72373 41165 ft 543 kts 132°
2026-04-28 08:25 40.27616 116.75982 41166 ft 535 kts 144°
2026-04-28 08:25 40.24675 116.78827 41164 ft 525 kts 155°
2026-04-28 08:25 40.21421 116.80905 41164 ft 515 kts 167°
2026-04-28 08:26 40.14570 116.82623 41161 ft 492 kts 187°
2026-04-28 08:26 40.11217 116.82331 41163 ft 481 kts 197°
2026-04-28 08:26 40.07926 116.81590 41162 ft 481 kts 195°
2026-04-28 08:27 40.01110 116.81391 41183 ft 498 kts 182°
2026-04-28 08:27 39.94220 116.82500 41181 ft 502 kts 179°
2026-04-28 08:28 39.87326 116.83902 41181 ft 503 kts 178°
2026-04-28 08:28 39.80397 116.85335 41180 ft 503 kts 179°
2026-04-28 08:29 39.73505 116.86766 41178 ft 503 kts 179°
2026-04-28 08:29 39.66590 116.88210 41183 ft 502 kts 179°
2026-04-28 08:30 39.59712 116.89635 41185 ft 502 kts 179°
2026-04-28 08:30 39.52803 116.91060 41181 ft 501 kts 180°
2026-04-28 08:31 39.45944 116.92472 41188 ft 500 kts 180°
2026-04-28 08:31 39.39090 116.93879 41183 ft 500 kts 180°
2026-04-28 08:32 39.32202 116.95292 41188 ft 499 kts 180°
2026-04-28 08:32 39.25366 116.96705 41183 ft 500 kts 179°
2026-04-28 08:33 39.18627 116.99552 41182 ft 523 kts 161°
2026-04-28 08:33 39.15545 117.02046 41189 ft 536 kts 149°
2026-04-28 08:33 39.12769 117.05346 41190 ft 548 kts 137°
2026-04-28 08:33 39.10494 117.09345 41175 ft 560 kts 125°
2026-04-28 08:34 39.08826 117.13923 41185 ft 570 kts 112°
2026-04-28 08:34 39.07871 117.18922 41182 ft 576 kts 98°
2026-04-28 08:34 39.07696 117.24011 41186 ft 578 kts 85°
2026-04-28 08:35 39.07961 117.34349 41187 ft 577 kts 97°
2026-04-28 08:35 39.07804 117.44625 41184 ft 577 kts 90°
2026-04-28 08:36 39.07720 117.54997 41187 ft 579 kts 91°
2026-04-28 08:36 39.07578 117.65316 41192 ft 580 kts 91°
2026-04-28 08:37 39.07431 117.75721 41188 ft 580 kts 91°
2026-04-28 08:37 39.07287 117.86114 41197 ft 580 kts 91°
2026-04-28 08:38 39.07140 117.96455 41199 ft 580 kts 91°
2026-04-28 08:38 39.06442 118.06788 41191 ft 578 kts 101°
2026-04-28 08:39 39.04965 118.16920 41187 ft 579 kts 103°
2026-04-28 08:39 39.03328 118.27038 41201 ft 576 kts 104°
2026-04-28 08:40 39.01595 118.37113 41181 ft 576 kts 104°
2026-04-28 08:40 38.99852 118.47113 41190 ft 578 kts 105°
2026-04-28 08:41 38.98095 118.57218 41193 ft 578 kts 104°
2026-04-28 08:41 38.96338 118.67324 41188 ft 579 kts 105°
2026-04-28 08:42 38.94582 118.77374 41189 ft 581 kts 105°
2026-04-28 08:42 38.92801 118.87512 41189 ft 582 kts 105°
2026-04-28 08:43 38.91005 118.97675 41175 ft 582 kts 105°
2026-04-28 08:43 38.89209 119.07787 41189 ft 584 kts 105°
2026-04-28 08:44 38.87391 119.17963 41192 ft 585 kts 105°
2026-04-28 08:44 38.85559 119.28162 41182 ft 585 kts 105°
2026-04-28 08:45 38.83730 119.38293 41191 ft 586 kts 105°
2026-04-28 08:45 38.81872 119.48531 41192 ft 587 kts 105°
2026-04-28 08:46 38.80024 119.58662 41193 ft 587 kts 106°
2026-04-28 08:46 38.78150 119.68874 41192 ft 588 kts 106°
2026-04-28 08:47 38.76264 119.79104 41191 ft 588 kts 106°
2026-04-28 08:47 38.74379 119.89273 41194 ft 589 kts 106°
2026-04-28 08:48 38.72480 119.99464 41188 ft 590 kts 106°
2026-04-28 08:48 38.70560 120.09715 41191 ft 590 kts 106°
2026-04-28 08:49 38.68640 120.19908 41187 ft 592 kts 106°
2026-04-28 08:49 38.66696 120.30183 41189 ft 592 kts 106°
2026-04-28 08:50 38.64757 120.40379 41177 ft 591 kts 106°
2026-04-28 08:50 38.62811 120.50559 41184 ft 592 kts 107°
2026-04-28 08:51 38.60840 120.60815 41181 ft 592 kts 107°
2026-04-28 08:51 38.58863 120.71048 41181 ft 592 kts 107°
2026-04-28 08:52 38.56890 120.81215 41180 ft 592 kts 107°
2026-04-28 08:52 38.54891 120.91459 41181 ft 592 kts 107°
2026-04-28 08:53 38.53226 120.99957 41176 ft 593 kts 107°
2026-04-28 08:53 38.51210 121.10194 41173 ft 594 kts 107°
2026-04-28 08:54 38.49192 121.20390 41166 ft 594 kts 107°
2026-04-28 08:54 38.47165 121.30584 41159 ft 595 kts 107°
2026-04-28 08:55 38.45119 121.40821 41159 ft 595 kts 107°
2026-04-28 08:55 38.43072 121.51018 41149 ft 595 kts 107°
2026-04-28 08:56 38.41003 121.61268 41145 ft 596 kts 107°
2026-04-28 08:56 38.38927 121.71506 41143 ft 596 kts 107°
2026-04-28 08:57 38.36854 121.81683 41125 ft 596 kts 107°
2026-04-28 08:57 38.34755 121.91930 41143 ft 596 kts 107°
2026-04-28 08:58 38.32658 122.02126 41143 ft 596 kts 107°
2026-04-28 08:58 38.30551 122.12317 41138 ft 596 kts 107°
2026-04-28 08:59 38.28427 122.22541 41141 ft 596 kts 107°
2026-04-28 08:59 38.26514 122.32757 41155 ft 597 kts 102°
2026-04-28 09:00 38.24492 122.42986 41131 ft 591 kts 117°
2026-04-28 09:00 38.22592 122.47593 41136 ft 579 kts 131°
2026-04-28 09:00 38.20136 122.51573 41114 ft 569 kts 139°
2026-04-28 09:01 38.14771 122.58819 41134 ft 564 kts 143°
2026-04-28 09:01 38.09186 122.65855 41124 ft 563 kts 144°
2026-04-28 09:02 38.03637 122.72916 41134 ft 564 kts 143°
2026-04-28 09:02 37.98169 122.79989 41130 ft 564 kts 143°
2026-04-28 09:03 37.92668 122.87124 41138 ft 564 kts 143°
2026-04-28 09:03 37.87203 122.94191 41126 ft 564 kts 143°
2026-04-28 09:04 37.81694 123.01289 41129 ft 565 kts 143°
2026-04-28 09:04 37.76170 123.08388 41127 ft 565 kts 143°
2026-04-28 09:05 37.70647 123.15470 41126 ft 565 kts 143°
2026-04-28 09:05 37.65151 123.22504 41130 ft 565 kts 144°
2026-04-28 09:06 37.59622 123.29563 41129 ft 565 kts 144°
2026-04-28 09:06 37.54445 123.37084 41125 ft 575 kts 136°
2026-04-28 09:07 37.49578 123.45125 41126 ft 575 kts 134°
2026-04-28 09:07 37.44816 123.53163 41125 ft 575 kts 134°
2026-04-28 09:08 37.40014 123.61240 41122 ft 574 kts 135°
2026-04-28 09:08 37.35229 123.69232 41102 ft 574 kts 135°
2026-04-28 09:09 37.30405 123.77254 41122 ft 574 kts 135°
2026-04-28 09:09 37.25571 123.85273 41116 ft 574 kts 135°
2026-04-28 09:10 37.20819 123.93278 41108 ft 579 kts 130°
2026-04-28 09:10 37.18855 123.97756 41114 ft 588 kts 118°
2026-04-28 09:10 37.17544 124.02651 41117 ft 595 kts 104°
2026-04-28 09:10 37.17027 124.07743 41117 ft 596 kts 90°
2026-04-28 09:11 37.17011 124.12948 41114 ft 597 kts 88°
2026-04-28 09:11 37.17384 124.23396 41102 ft 598 kts 85°
2026-04-28 09:12 37.17828 124.33823 41110 ft 599 kts 86°
2026-04-28 09:12 37.18121 124.44205 41107 ft 599 kts 87°
2026-04-28 09:13 37.18349 124.54617 41110 ft 600 kts 87°
2026-04-28 09:13 37.18563 124.65102 41100 ft 600 kts 87°
2026-04-28 09:14 37.18780 124.75506 41105 ft 600 kts 87°
2026-04-28 09:14 37.18996 124.85993 41102 ft 600 kts 87°
2026-04-28 09:15 37.19204 124.96464 41100 ft 601 kts 87°
2026-04-28 09:15 37.19400 125.06909 41098 ft 601 kts 87°
2026-04-28 09:16 37.19588 125.17437 41093 ft 602 kts 88°
2026-04-28 09:16 37.19766 125.27952 41081 ft 602 kts 87°
2026-04-28 09:17 37.19934 125.38405 41082 ft 602 kts 88°
2026-04-28 09:17 37.20093 125.48849 41081 ft 601 kts 88°
2026-04-28 09:18 37.20239 125.59367 41107 ft 601 kts 88°
2026-04-28 09:18 37.20380 125.69820 41075 ft 602 kts 88°
2026-04-28 09:19 37.20511 125.80331 41064 ft 602 kts 88°
2026-04-28 09:19 37.20638 125.90816 41071 ft 601 kts 88°
2026-04-28 09:20 37.20750 126.01316 41074 ft 601 kts 88°
2026-04-28 09:20 37.20852 126.11739 41070 ft 601 kts 88°
2026-04-28 09:21 37.20946 126.22249 41070 ft 601 kts 88°
2026-04-28 09:21 37.21032 126.32679 41075 ft 600 kts 88°
2026-04-28 09:22 37.21109 126.43168 41064 ft 600 kts 88°
2026-04-28 09:22 37.21180 126.53639 41035 ft 599 kts 88°
2026-04-28 09:23 37.21235 126.64031 41050 ft 598 kts 88°
2026-04-28 09:23 37.21279 126.74497 41041 ft 599 kts 88°
2026-04-28 09:24 37.21316 126.84943 41039 ft 600 kts 88°
2026-04-28 09:24 37.22016 126.95334 41049 ft 592 kts 71°
2026-04-28 09:24 37.23326 127.00173 41023 ft 580 kts 58°
2026-04-28 09:25 37.25307 127.04512 41036 ft 564 kts 45°
2026-04-28 09:25 37.30211 127.11999 41045 ft 555 kts 38°
2026-04-28 09:26 37.35358 127.19167 41045 ft 554 kts 37°
2026-04-28 09:26 37.40550 127.26365 41050 ft 555 kts 38°
2026-04-28 09:27 37.47786 127.37846 41038 ft 577 kts 55°
2026-04-28 09:27 37.49357 127.42567 41030 ft 590 kts 69°
2026-04-28 09:27 37.50408 127.47595 41057 ft 592 kts 72°
2026-04-28 09:28 37.52093 127.57806 41016 ft 596 kts 75°
2026-04-28 09:28 37.53624 127.68052 41011 ft 597 kts 75°
2026-04-28 09:29 37.55188 127.78308 41005 ft 597 kts 75°
2026-04-28 09:29 37.56798 127.88581 41010 ft 596 kts 75°
2026-04-28 09:30 37.58412 127.98800 40994 ft 596 kts 75°
2026-04-28 09:30 37.60018 128.09074 40998 ft 596 kts 75°
2026-04-28 09:31 37.61606 128.19361 41009 ft 596 kts 75°
2026-04-28 09:31 37.63172 128.29556 41009 ft 596 kts 75°
2026-04-28 09:32 37.64745 128.39837 41016 ft 596 kts 75°
2026-04-28 09:32 37.66298 128.50085 41018 ft 596 kts 76°
2026-04-28 09:33 37.67854 128.60395 41028 ft 596 kts 76°
2026-04-28 09:33 37.68872 128.70748 41031 ft 600 kts 91°
2026-04-28 09:34 37.68415 128.75989 41041 ft 597 kts 104°
2026-04-28 09:34 37.67169 128.80960 41041 ft 590 kts 119°
2026-04-28 09:34 37.63320 128.89946 41004 ft 584 kts 127°
2026-04-28 09:35 37.59056 128.98690 41046 ft 583 kts 128°
2026-04-28 09:35 37.54785 129.07346 41044 ft 583 kts 128°
2026-04-28 09:36 37.50531 129.16084 41047 ft 584 kts 128°
2026-04-28 09:36 37.46288 129.24853 41045 ft 585 kts 127°
2026-04-28 09:37 37.42084 129.33547 41040 ft 585 kts 127°
2026-04-28 09:37 37.37827 129.42317 41037 ft 586 kts 128°
2026-04-28 09:38 37.33588 129.51017 41034 ft 586 kts 128°
2026-04-28 09:38 37.29316 129.59764 41020 ft 586 kts 128°
2026-04-28 09:39 37.25045 129.68490 41027 ft 585 kts 128°
2026-04-28 09:39 37.20796 129.77148 41024 ft 585 kts 128°
2026-04-28 09:40 37.17233 129.84389 41027 ft 585 kts 128°
2026-04-28 09:40 37.12976 129.93031 41015 ft 584 kts 128°
2026-04-28 09:41 37.08672 130.01729 41018 ft 584 kts 128°
2026-04-28 09:41 37.04413 130.10315 41015 ft 583 kts 128°
2026-04-28 09:42 37.00128 130.18935 41012 ft 581 kts 128°
2026-04-28 09:42 36.95880 130.27462 40998 ft 580 kts 128°
2026-04-28 09:43 36.91606 130.36014 41016 ft 578 kts 128°
2026-04-28 09:43 36.87358 130.44495 41011 ft 577 kts 128°
2026-04-28 09:44 36.83086 130.53000 41003 ft 577 kts 128°
2026-04-28 09:44 36.78811 130.61492 41007 ft 576 kts 128°
2026-04-28 09:45 36.74568 130.69905 41004 ft 576 kts 128°
2026-04-28 09:45 36.70284 130.78381 41004 ft 576 kts 129°
2026-04-28 09:46 36.66026 130.86770 41001 ft 576 kts 129°
2026-04-28 09:46 36.61729 130.95217 40993 ft 575 kts 129°
2026-04-28 09:47 36.57463 131.03588 41001 ft 575 kts 129°
2026-04-28 09:47 36.53167 131.11995 41000 ft 575 kts 129°
2026-04-28 09:48 36.48866 131.20395 41001 ft 574 kts 129°
2026-04-28 09:48 36.44597 131.28710 40995 ft 574 kts 129°
2026-04-28 09:49 36.40279 131.37099 40988 ft 573 kts 129°
2026-04-28 09:49 36.36009 131.45396 40999 ft 573 kts 128°
2026-04-28 09:50 36.31812 131.53833 40996 ft 574 kts 127°
2026-04-28 09:50 36.27672 131.62250 40991 ft 573 kts 128°
2026-04-28 09:51 36.23497 131.70684 40993 ft 572 kts 128°
2026-04-28 09:51 36.19311 131.79079 40964 ft 572 kts 128°
2026-04-28 09:52 36.15141 131.87410 40989 ft 571 kts 128°
2026-04-28 09:52 36.10943 131.95778 40999 ft 571 kts 128°
2026-04-28 09:53 36.06775 132.04077 40993 ft 571 kts 128°
2026-04-28 09:53 36.02570 132.12408 40992 ft 570 kts 128°
2026-04-28 09:54 35.98382 132.20686 40966 ft 570 kts 128°
2026-04-28 09:54 35.94169 132.28999 40994 ft 569 kts 128°
2026-04-28 09:55 35.89960 132.37286 40896 ft 568 kts 128°
2026-04-28 09:55 35.87893 132.41351 40634 ft 565 kts 128°
2026-04-28 09:55 35.85809 132.45446 40366 ft 559 kts 128°
2026-04-28 09:56 35.83750 132.49492 39982 ft 554 kts 128°
2026-04-28 09:56 35.81700 132.53509 39523 ft 550 kts 128°
2026-04-28 09:56 35.79663 132.57493 39065 ft 547 kts 128°
2026-04-28 09:56 35.77631 132.61461 38603 ft 545 kts 128°
2026-04-28 09:57 35.75619 132.65387 38098 ft 541 kts 129°
2026-04-28 09:57 35.73644 132.69255 37659 ft 537 kts 128°
2026-04-28 09:57 35.71663 132.73149 37220 ft 535 kts 129°
2026-04-28 09:57 35.69688 132.77034 36772 ft 536 kts 129°
2026-04-28 09:58 35.67699 132.80934 36318 ft 537 kts 129°
2026-04-28 09:58 35.65705 132.84834 35871 ft 538 kts 129°
2026-04-28 09:58 35.63737 132.88680 35424 ft 537 kts 129°
2026-04-28 09:58 35.61750 132.92562 34991 ft 534 kts 129°
2026-04-28 09:59 35.59774 132.96424 34550 ft 530 kts 129°
2026-04-28 09:59 35.57820 133.00240 34115 ft 527 kts 129°
2026-04-28 09:59 35.55875 133.04032 33648 ft 523 kts 129°
2026-04-28 09:59 35.53932 133.07819 33216 ft 518 kts 130°
2026-04-28 10:00 35.52453 133.11109 32842 ft 520 kts 123°
2026-04-28 10:00 35.50871 133.15103 32382 ft 517 kts 121°
2026-04-28 10:00 35.49369 133.19113 31959 ft 515 kts 120°
2026-04-28 10:00 35.47894 133.23133 31516 ft 514 kts 120°
2026-04-28 10:01 35.46452 133.27072 31112 ft 512 kts 120°
2026-04-28 10:01 35.44986 133.31053 30676 ft 509 kts 121°
2026-04-28 10:01 35.43515 133.35017 30259 ft 506 kts 121°
2026-04-28 10:01 35.42049 133.38938 29803 ft 504 kts 121°
2026-04-28 10:02 35.40604 133.42783 29381 ft 501 kts 121°
2026-04-28 10:02 35.39144 133.46654 28950 ft 496 kts 121°
2026-04-28 10:02 35.37701 133.50477 28553 ft 491 kts 121°
2026-04-28 10:02 35.36263 133.54283 28140 ft 488 kts 121°
2026-04-28 10:03 35.34852 133.58004 27735 ft 485 kts 121°
2026-04-28 10:03 35.33430 133.61763 27330 ft 484 kts 121°
2026-04-28 10:03 35.32017 133.65502 26941 ft 481 kts 121°
2026-04-28 10:03 35.30630 133.69161 26541 ft 476 kts 121°
2026-04-28 10:04 35.29238 133.72816 26169 ft 472 kts 122°
2026-04-28 10:04 35.27849 133.76454 25771 ft 470 kts 122°
2026-04-28 10:04 35.26463 133.80080 25376 ft 468 kts 122°
2026-04-28 10:04 35.25089 133.83676 24984 ft 465 kts 122°
2026-04-28 10:05 35.23717 133.87260 24602 ft 462 kts 122°
2026-04-28 10:05 35.22371 133.90785 24237 ft 460 kts 122°
2026-04-28 10:05 35.21013 133.94325 23854 ft 457 kts 122°
2026-04-28 10:05 35.19661 133.97847 23441 ft 455 kts 122°
2026-04-28 10:06 35.18004 134.01027 22993 ft 431 kts 142°
2026-04-28 10:06 35.15789 134.03187 22683 ft 394 kts 163°
2026-04-28 10:06 35.13295 134.04228 22442 ft 370 kts 182°
2026-04-28 10:06 35.10762 134.04554 22138 ft 361 kts 189°
2026-04-28 10:07 35.08297 134.04648 21853 ft 357 kts 190°
2026-04-28 10:07 35.05800 134.04756 21557 ft 357 kts 189°
2026-04-28 10:07 35.03319 134.04970 21252 ft 358 kts 186°
2026-04-28 10:07 35.00843 134.05303 20959 ft 356 kts 184°
2026-04-28 10:08 34.98378 134.05726 20591 ft 357 kts 183°
2026-04-28 10:08 34.95944 134.06194 20206 ft 358 kts 181°
2026-04-28 10:08 34.93489 134.06684 19838 ft 356 kts 182°
2026-04-28 10:08 34.91039 134.07119 19476 ft 352 kts 183°
2026-04-28 10:09 34.88617 134.07514 19104 ft 349 kts 183°
2026-04-28 10:09 34.86209 134.07892 18737 ft 347 kts 183°
2026-04-28 10:09 34.83847 134.08257 18372 ft 345 kts 183°
2026-04-28 10:09 34.81472 134.08625 17973 ft 342 kts 183°
2026-04-28 10:10 34.79112 134.08998 17615 ft 338 kts 182°
2026-04-28 10:10 34.76784 134.09371 17212 ft 334 kts 182°
2026-04-28 10:10 34.74519 134.09733 16898 ft 333 kts 182°
2026-04-28 10:10 34.72213 134.10101 16556 ft 334 kts 182°
2026-04-28 10:11 34.69910 134.10468 16198 ft 333 kts 182°
2026-04-28 10:11 34.67616 134.10831 15832 ft 330 kts 182°
2026-04-28 10:11 34.65339 134.11194 15479 ft 327 kts 182°
2026-04-28 10:11 34.63090 134.11553 15132 ft 325 kts 182°
2026-04-28 10:12 34.60845 134.11911 14785 ft 322 kts 181°
2026-04-28 10:12 34.58624 134.12265 14449 ft 322 kts 181°
2026-04-28 10:12 34.56430 134.12621 14031 ft 321 kts 180°
2026-04-28 10:12 34.54231 134.13161 13736 ft 320 kts 175°
2026-04-28 10:13 34.52104 134.13778 13474 ft 318 kts 175°
2026-04-28 10:13 34.49948 134.14409 13148 ft 318 kts 175°
2026-04-28 10:13 34.47796 134.15039 12815 ft 317 kts 175°
2026-04-28 10:13 34.45648 134.15665 12479 ft 316 kts 175°
2026-04-28 10:14 34.43519 134.16285 12149 ft 315 kts 174°
2026-04-28 10:14 34.41388 134.16905 11816 ft 314 kts 174°
2026-04-28 10:14 34.39268 134.17520 11486 ft 313 kts 174°
2026-04-28 10:14 34.37174 134.18130 11165 ft 312 kts 174°
2026-04-28 10:15 34.35063 134.18744 10960 ft 317 kts 173°
2026-04-28 10:15 34.32856 134.19376 10947 ft 329 kts 173°
2026-04-28 10:15 34.30614 134.20024 10941 ft 331 kts 173°
2026-04-28 10:15 34.28399 134.20668 10928 ft 331 kts 173°
2026-04-28 10:16 34.26152 134.21319 10928 ft 331 kts 173°
2026-04-28 10:16 34.23913 134.21988 10924 ft 332 kts 171°
2026-04-28 10:16 34.21802 134.23050 10962 ft 324 kts 157°
2026-04-28 10:16 34.20055 134.24729 10947 ft 326 kts 138°
2026-04-28 10:17 34.18878 134.27102 10943 ft 340 kts 112°
2026-04-28 10:17 34.18531 134.29952 10763 ft 344 kts 94°
2026-04-28 10:17 34.18518 134.32857 10526 ft 345 kts 92°
2026-04-28 10:17 34.18532 134.35696 10333 ft 337 kts 91°
2026-04-28 10:18 34.18535 134.38491 10097 ft 329 kts 92°
2026-04-28 10:18 34.18534 134.41243 9871 ft 326 kts 91°
2026-04-28 10:18 34.18523 134.43978 9584 ft 323 kts 92°
2026-04-28 10:18 34.18503 134.46647 9332 ft 320 kts 92°
2026-04-28 10:19 34.18484 134.49327 9079 ft 318 kts 92°
2026-04-28 10:19 34.18465 134.51994 8820 ft 316 kts 92°
2026-04-28 10:19 34.18443 134.54642 8565 ft 314 kts 92°
2026-04-28 10:19 34.18459 134.57275 8327 ft 313 kts 86°
2026-04-28 10:20 34.19082 134.59765 8090 ft 311 kts 56°
2026-04-28 10:20 34.20363 134.61817 7997 ft 308 kts 47°
2026-04-28 10:20 34.21759 134.63786 7995 ft 307 kts 46°
2026-04-28 10:20 34.23155 134.65753 8003 ft 306 kts 47°
2026-04-28 10:21 34.24519 134.67693 8010 ft 306 kts 47°
2026-04-28 10:21 34.25896 134.69662 8010 ft 306 kts 47°
2026-04-28 10:21 34.27276 134.71641 8017 ft 306 kts 47°
2026-04-28 10:21 34.28633 134.73633 8021 ft 306 kts 48°
2026-04-28 10:22 34.29983 134.75599 8028 ft 307 kts 47°
2026-04-28 10:22 34.31361 134.77582 8029 ft 308 kts 47°
2026-04-28 10:22 34.32743 134.79574 8032 ft 308 kts 47°
2026-04-28 10:22 34.34118 134.81564 8036 ft 308 kts 47°
2026-04-28 10:23 34.35497 134.83556 8038 ft 308 kts 47°
2026-04-28 10:23 34.36850 134.85541 7921 ft 309 kts 49°
2026-04-28 10:23 34.38216 134.87563 8009 ft 309 kts 47°
2026-04-28 10:23 34.39598 134.89561 8042 ft 308 kts 47°
2026-04-28 10:24 34.40982 134.91560 8051 ft 310 kts 47°
2026-04-28 10:24 34.42352 134.93545 8038 ft 311 kts 47°
2026-04-28 10:24 34.43746 134.95569 8038 ft 311 kts 47°
2026-04-28 10:24 34.45131 134.97584 7876 ft 310 kts 47°
2026-04-28 10:25 34.46504 134.99590 7630 ft 308 kts 47°
2026-04-28 10:25 34.47872 135.01586 7437 ft 307 kts 47°
2026-04-28 10:25 34.49223 135.03556 7266 ft 307 kts 47°
2026-04-28 10:25 34.50590 135.05550 7009 ft 305 kts 47°
2026-04-28 10:26 34.51942 135.07525 6735 ft 304 kts 47°
2026-04-28 10:26 34.53275 135.09476 6560 ft 294 kts 47°
2026-04-28 10:26 34.54538 135.11329 6359 ft 284 kts 47°
2026-04-28 10:26 34.55801 135.13178 5994 ft 282 kts 47°
2026-04-28 10:27 34.57047 135.15004 5682 ft 278 kts 47°
2026-04-28 10:27 34.58271 135.16798 5429 ft 273 kts 47°
2026-04-28 10:27 34.59451 135.18529 5274 ft 263 kts 47°
2026-04-28 10:27 34.60467 135.20324 5109 ft 256 kts 67°
2026-04-28 10:28 34.60688 135.22358 4987 ft 244 kts 95°
2026-04-28 10:28 34.60477 135.24397 4878 ft 232 kts 102°
2026-04-28 10:28 34.60133 135.26251 4653 ft 225 kts 107°
2026-04-28 10:29 34.59086 135.29795 3992 ft 219 kts 117°
2026-04-28 10:29 34.58651 135.30878 3806 ft 211 kts 121°
2026-04-28 10:29 34.57926 135.32413 3576 ft 211 kts 126°
2026-04-28 10:29 34.57081 135.33845 3369 ft 203 kts 136°
2026-04-28 10:30 34.55886 135.34670 3240 ft 196 kts 176°
2026-04-28 10:30 34.54576 135.34466 3200 ft 187 kts 203°
2026-04-28 10:30 34.53381 135.33938 3006 ft 176 kts 206°
2026-04-28 10:30 34.52308 135.33429 2790 ft 159 kts 207°
2026-04-28 10:31 34.51362 135.32896 2609 ft 141 kts 218°
2026-04-28 10:31 34.50654 135.32161 2438 ft 128 kts 231°
2026-04-28 10:31 34.50082 135.31368 2281 ft 125 kts 234°
2026-04-28 10:31 34.49513 135.30548 1905 ft 129 kts 232°
2026-04-28 10:32 34.48955 135.29718 1680 ft 127 kts 233°
2026-04-28 10:32 34.48380 135.28847 1302 ft 138 kts 231°
2026-04-28 10:32 34.47756 135.27917 954 ft 145 kts 230°
2026-04-28 10:32 34.47099 135.26989 663 ft 142 kts 227°
2026-04-28 10:33 34.46508 135.26080 443 ft 132 kts 232°
2026-04-28 10:33 34.45954 135.25254 290 ft 127 kts 230°
2026-04-28 10:33 34.45405 135.24426 156 ft 126 kts 230°
2026-04-28 10:33 34.44856 135.23608 39 ft 122 kts 230°
2026-04-28 10:34 34.44387 135.22904 35 ft 93 kts 231°
2026-04-28 10:34 34.44056 135.22401 36 ft 53 kts 231°
2026-04-28 10:34 34.43924 135.22228 37 ft 16 kts 218°
2026-04-28 10:34 34.43872 135.22180 37 ft 3 kts 214°
2026-04-28 10:35 34.43849 135.22164 37 ft 12 kts 210°
2026-04-28 10:35 34.43755 135.22116 37 ft 16 kts 201°
2026-04-28 10:35 34.43670 135.22123 35 ft 12 kts 127°
2026-04-28 10:35 34.43695 135.22211 35 ft 13 kts 54°
2026-04-28 10:36 34.43754 135.22300 35 ft 10 kts 50°
2026-04-28 10:36 34.43789 135.22367 35 ft 10 kts 78°
2026-04-28 10:36 34.43749 135.22447 35 ft 14 kts 139°
2026-04-28 10:36 34.43662 135.22533 34 ft 18 kts 141°
2026-04-28 10:37 34.43557 135.22635 35 ft 20 kts 141°
2026-04-28 10:37 34.43439 135.22749 35 ft 23 kts 141°
2026-04-28 10:37 34.43315 135.22871 35 ft 24 kts 141°
2026-04-28 10:37 34.43188 135.22996 35 ft 24 kts 141°
2026-04-28 10:38 34.43049 135.23132 28 ft 27 kts 141°
2026-04-28 10:38 34.42958 135.23221 27 ft 13 kts 141°
2026-04-28 10:38 34.42920 135.23298 29 ft 10 kts 81°
2026-04-28 10:38 34.42964 135.23379 28 ft 13 kts 51°
2026-04-28 10:39 34.43017 135.23465 27 ft 10 kts 66°
2026-04-28 10:39 34.42996 135.23547 31 ft 12 kts 134°
2026-04-28 10:39 34.42929 135.23616 29 ft 14 kts 140°
2026-04-28 10:39 34.42850 135.23695 28 ft 16 kts 141°
2026-04-28 10:40 34.42799 135.23746 29 ft 9 kts 135°
2026-04-28 10:40 34.42790 135.23819 28 ft 10 kts 71°
2026-04-28 10:40 34.42845 135.23909 30 ft 17 kts 51°
2026-04-28 10:40 34.42930 135.24037 28 ft 21 kts 51°
2026-04-28 10:41 34.43027 135.24182 27 ft 23 kts 51°
2026-04-28 10:41 34.43086 135.24270 28 ft 5 kts 51°
2026-04-28 10:41 34.43113 135.24283 38 ft 3 kts 349°
2026-04-28 10:41 34.43141 135.24263 28 ft 6 kts 326°
2026-04-28 10:42 34.43161 135.24245 31 ft 1 kts 322°
2026-04-28 10:42 34.43165 135.24241 29 ft 0 kts 322°